STARLINK-32768 (62503 NORAD) Tracking and Keplerian Element Data

This shows tracking and keplerian element data for the satellite.

Feedback or suggestion? Click here.




ElementValue
Catalog62503
NameSTARLINK-32768
Epoch Orbit538
Epoch Day34.04714344
Epoch Year2025
RAAN30.0746
Inclination43.0007
Eccentricity0.0001956
Argument of Perigee275.2677
Mean Anonmoly84.796
Mean Motion15.50575389
Decay Rate1.44E-06
L11 62503U 25003S 25034.04714344 .00000144 00000+0 82821-5 0 9991
L22 62503 43.0007 30.0746 0001956 275.2677 84.7960 15.50575389 5387



Live tracking and technical data element details for STARLINK-32768 (NORAD 62503). STARLINK-32768 can be tracked NOW for your location showing map with azimuth and elevation plus other details from your city location.







IsCatalogInMostPopularTable: catalog: 62503, numindb: 12
Update: records affected: 1



GetName: 62503 STARLINK-32768

Hit Count: updated at: Sun, 18 May 2025 23:21:45 GMT